#timestamp,LO_Frequency,Hit,StdDev 
1459342815.2,286047003.8,N
1459342835.0,286047000.7,N
1459342835.9,286047000.7,N
1459342855.8,286046994.9,N
1459342875.6,286046992.5,N
1459342895.4,286046988.7,Y
1459342915.3,286046992.8,P
1459342935.1,286046992.6,N
1459342936.0,286046992.6,N
1459342955.8,286046994.7,N
1459342975.7,286046994.1,N
1459342995.5,286046990.2,Y
1459343015.3,286046996.6,P
1459343035.2,286046994.4,P
1459343055.9,286046990.2,P
1459343075.7,286046987.1,Y
1459343095.6,286046996.5,P
1459343115.4,286046998.5,N
1459343135.2,286047000.8,N
1459343155.1,286046998.1,N
1459343156.0,286046998.1,N
1459343175.8,286047000.1,N
1459343195.6,286047000.0,N
1459343215.5,286046999.3,N
1459343235.3,286046996.7,N
1459343255.1,286046997.2,N
1459343275.8,286047002.4,N
1459343295.7,286047000.5,N
1459343315.5,286047000.5,N
1459343335.3,286047001.3,N
1459343355.2,286047001.7,N
1459343375.9,286047002.1,N
1459343395.7,286046998.4,N
1459343415.6,286047000.0,N
1459343435.4,286047000.8,N
1459343455.2,286046998.1,N
1459343475.1,286047002.4,N
1459343476.0,286047002.4,N
1459343495.8,286046998.8,N
1459343515.6,286046999.5,N
1459343535.5,286046998.1,N
1459343555.3,286047000.6,N
1459343575.1,286046999.9,N
1459343595.8,286047002.6,N
1459343615.7,286047000.9,N
1459343635.5,286047004.2,N
1459343655.3,286047001.8,N
1459343675.2,286047000.0,N
1459343695.9,286047001.7,N
1459343715.7,286047003.5,N
1459343735.6,286047003.9,N
1459343755.4,286047004.3,N
1459343775.2,286047006.0,Y
1459343795.1,286047005.9,P
1459343796.0,286047005.9,N
1459343815.8,286047005.8,N
1459343835.6,286047005.7,N
1459343855.5,286047002.9,N
1459343875.3,286047002.4,N
1459343895.1,286047004.3,N
1459343915.9,286047006.0,Y
1459343935.7,286046999.9,P
1459343955.5,286047000.7,N
1459343975.4,286047000.1,N
1459343995.2,286047000.2,N
1459344015.0,286046999.9,N
1459344015.9,286046999.9,N
1459344035.8,286047000.2,N
1459344055.6,286047001.9,N
1459344075.4,286047005.2,Y
1459344095.3,286047004.3,P
1459344115.1,286047001.9,N
1459344116.0,286047001.9,N
1459344135.8,286047001.6,N
1459344155.7,286047001.6,N
1459344175.5,286047005.9,Y
1459344195.3,286047004.3,P
1459344215.2,286047000.5,N
1459344235.9,286047004.1,N
1459344255.7,286047002.0,N
1459344275.6,286047005.8,Y
1459344295.4,286047003.9,P
1459344315.2,286047002.4,P
1459344335.0,286047002.4,P
1459344336.0,286047002.4,Y
1459344355.8,286046996.5,P
1459344375.6,286047000.9,N
1459344395.5,286047003.9,N
1459344415.3,286047002.7,N
1459344435.1,286047003.8,N
1459344455.8,286047001.9,N
1459344475.7,286047000.9,N
1459344495.5,286047000.7,N
1459344515.3,286046998.2,N
1459344535.2,286046999.2,N
1459344555.9,286046995.5,N
1459344575.7,286046995.6,N
1459344595.6,286046994.4,N
1459344615.4,286046992.1,N
1459344635.2,286046992.6,N
1459344655.1,286046993.1,N
1459344656.0,286046993.1,N
1459344675.8,286046992.0,N
1459344695.6,286046989.3,N
1459344715.5,286046991.1,N
1459344735.3,286046988.9,N
1459344755.1,286046992.7,N
1459344775.8,286046988.5,N
1459344795.7,286046989.4,N
1459344815.5,286046987.4,N
1459344835.3,286046988.0,N
1459344855.2,286046987.2,N
1459344875.9,286046993.2,N
1459344895.7,286046989.7,N
1459344915.6,286046992.5,N
1459344935.4,286046996.4,N
1459344955.2,286046997.5,N
1459344975.1,286046995.7,N
1459344976.0,286046995.7,N
1459344995.8,286046995.8,N
1459345015.6,286046993.9,N
1459345035.5,286046993.7,N
1459345055.3,286046994.3,N
1459345075.1,286046990.5,N
1459345095.9,286046993.8,N
1459345115.7,286046995.4,N
1459345135.5,286046995.4,N
1459345155.3,286046996.4,N
1459345175.2,286046996.1,N
1459345195.0,286046996.1,N
1459345195.9,286046996.1,N
1459345215.7,286046995.3,N
1459345235.6,286046994.6,N
1459345255.4,286046994.1,N
1459345275.2,286046994.2,N
1459345295.1,286046992.1,N
1459345296.0,286046992.1,N
1459345315.8,286046990.1,Y
1459345335.6,286046996.3,P
1459345355.5,286046994.1,P
1459345375.3,286046992.3,P
1459345395.1,286046994.3,Y
1459345415.9,286046996.5,P
1459345435.7,286046996.0,P
1459345455.5,286046991.9,P
1459345475.4,286046993.8,Y
1459345495.2,286046997.1,P
1459345515.0,286046993.3,P
1459345515.9,286046993.3,P
1459345535.8,286046993.9,Y
1459345555.6,286047002.5,P
1459345575.4,286047003.2,N
1459345595.3,286047003.4,N
1459345615.1,286047002.9,N
1459345635.8,286047001.8,N
1459345655.7,286047003.8,N
1459345675.5,286047005.9,N
1459345695.3,286047003.2,N
1459345715.2,286047005.7,N
1459345735.9,286047003.0,N
1459345755.7,286047001.9,N
1459345775.6,286046997.1,N
1459345795.4,286046998.0,N
1459345815.2,286046995.5,N
1459345835.1,286046996.3,N
1459345836.0,286046996.3,N
1459345855.8,286046995.9,N
1459345875.6,286046990.3,N
1459345895.4,286046992.8,N
1459345915.3,286046989.2,N
1459345935.1,286046987.2,N
1459345955.8,286046986.0,N
1459345975.7,286046985.6,N
1459345995.5,286046985.5,N
1459346015.3,286046985.3,N
1459346035.2,286046985.6,N
1459346055.9,286046982.8,N
1459346075.7,286046983.9,N
1459346095.6,286046984.2,N
1459346115.4,286046983.7,N
1459346135.2,286046986.3,N
1459346155.0,286046983.9,N
1459346156.0,286046983.9,N
1459346175.8,286046987.5,N
1459346195.6,286046988.7,N
1459346215.4,286046986.4,N
1459346235.3,286046982.5,N
1459346255.1,286046986.7,N
1459346275.8,286046986.5,N
1459346295.7,286046986.5,N
1459346315.5,286046985.8,N
1459346335.3,286046987.9,N
1459346355.2,286046983.9,Y
1459346375.0,286046993.3,P
1459346375.9,286046993.3,N
1459346395.7,286046993.3,N
